Weather History for Algona, IA

Change the Weather History Date:

Friday, April 12, 2013

  Actual Average Record
Temperature  
Mean Temperature 32 °F -  
Max Temperature 33 °F 53 °F 78 °F (2014)
Min Temperature 30 °F 35 °F 26 °F (2007)
Degree Days  
Heating Degree Days 34    
Moisture  
Dew Point 29 °F    
Average Humidity 90    
Maximum Humidity 100    
Minimum Humidity 75    
Precipitation  
Precipitation 0.01 in - - ()
Sea Level Pressure  
Sea Level Pressure 29.76 in    
Wind  
Wind Speed 13 mph (NW)    
Max Wind Speed 22 mph    
Max Gust Speed 24 mph    
Visibility 10 miles    
Events Rain    
Averages and records for this station are not official NWS values.
T = Trace of Precipitation, MM = Missing Value Source: NWS Daily Summary

Daily Weather History Graph

Daily Weather History Graph

Search for Another Location

Airport:

Trip Planner

Search our weather history database for the weather conditions in past years. The results will help you decide how hot, cold, wet, or windy it might be!

Date:

Astronomy

Apr. 12, 2013 Rise Set
Actual Time 6:39 AM CDT 7:56 PM CDT
Civil Twilight 6:10 AM CDT 8:26 PM CDT
Nautical Twilight 5:35 AM CDT 9:01 PM CDT
Astronomical Twilight 4:57 AM CDT 9:38 PM CDT
Moon 7:46 AM CDT (4/12) 10:32 PM CDT (4/12)
Length of Visible Light 14h 15m
Length of Day
13h 16m
Waxing Crescent, 5% of the Moon is Illuminated
Apr 12
Waxing Crescent
Apr 18
First Quarter
Apr 25
Full
May 2
Last Quarter
May 9
New

Hourly Weather History & Observations

Time (CDT) Temp. Windchill Dew Point Humidity Pressure Visibility Wind Dir Wind Speed Gust Speed Precip Events Conditions
12:15 AM 32.0 °F 24.2 °F 32.0 °F 100% 29.60 in 3.0 mi North 9.2 mph - N/A Rain Light Rain
12:35 AM 32.0 °F 24.2 °F 32.0 °F 100% 29.61 in 4.0 mi North 9.2 mph - N/A Rain Light Rain
12:55 AM 32.0 °F 23.6 °F 32.0 °F 100% 29.61 in 4.0 mi North 10.4 mph - N/A Rain Light Rain
1:15 AM 32.0 °F 23.0 °F 32.0 °F 100% 29.61 in 4.0 mi North 11.5 mph - N/A   Light Drizzle
1:35 AM 32.0 °F 23.6 °F 32.0 °F 100% 29.61 in 6.0 mi North 10.4 mph - N/A   Light Drizzle
1:55 AM 32.0 °F 21.6 °F 32.0 °F 100% 29.61 in 9.0 mi North 15.0 mph - 0.01 in   Light Drizzle
2:15 AM 32.0 °F 22.1 °F 32.0 °F 100% 29.62 in 9.0 mi North 13.8 mph 19.6 mph N/A Rain Light Rain
2:35 AM 32.0 °F 22.1 °F 32.0 °F 100% 29.62 in 10.0 mi North 13.8 mph - N/A   Overcast
2:55 AM 32.0 °F 22.1 °F 32.0 °F 100% 29.62 in 10.0 mi North 13.8 mph 19.6 mph N/A   Overcast
3:15 AM 32.0 °F 23.0 °F 32.0 °F 100% 29.62 in 10.0 mi North 11.5 mph - N/A   Overcast
3:35 AM 32.0 °F 22.1 °F 32.0 °F 100% 29.63 in 10.0 mi North 13.8 mph - N/A   Overcast
3:55 AM 32.0 °F 22.1 °F 32.0 °F 100% 29.63 in 10.0 mi North 13.8 mph - N/A   Overcast
4:15 AM 32.0 °F 22.5 °F 32.0 °F 100% 29.64 in 10.0 mi North 12.7 mph 18.4 mph N/A Rain Light Rain
4:55 AM 32.0 °F 22.1 °F 30.2 °F 93% 29.64 in 10.0 mi North 13.8 mph 20.7 mph N/A   Overcast
5:15 AM 32.0 °F 23.0 °F 30.2 °F 93% 29.65 in 10.0 mi North 11.5 mph 18.4 mph N/A   Overcast
5:35 AM 30.2 °F 20.8 °F 30.2 °F 100% 29.66 in 10.0 mi North 11.5 mph - N/A   Overcast
5:55 AM 30.2 °F 20.8 °F 30.2 °F 100% 29.66 in 10.0 mi NNW 11.5 mph - N/A Rain Light Freezing Rain
6:15 AM 30.2 °F 20.8 °F 30.2 °F 100% 29.66 in 10.0 mi NNW 11.5 mph - N/A Rain Light Freezing Rain
6:35 AM 30.2 °F 21.3 °F 30.2 °F 100% 29.66 in 9.0 mi NNW 10.4 mph 17.3 mph N/A Rain Light Freezing Rain
6:55 AM 30.2 °F 19.8 °F 30.2 °F 100% 29.67 in 9.0 mi NNW 13.8 mph - N/A Rain Light Freezing Rain
7:15 AM 30.2 °F 19.8 °F 30.2 °F 100% 29.67 in 9.0 mi NNW 13.8 mph 20.7 mph N/A Rain Light Freezing Rain
7:35 AM 30.2 °F 21.9 °F 30.2 °F 100% 29.68 in 10.0 mi NNW 9.2 mph 16.1 mph N/A   Overcast
7:55 AM 30.2 °F 19.8 °F 28.4 °F 93% 29.69 in 10.0 mi North 13.8 mph 21.9 mph N/A   Overcast
8:15 AM 30.2 °F 20.8 °F 30.2 °F 100% 29.70 in 10.0 mi NNW 11.5 mph 17.3 mph N/A   Overcast
8:35 AM 30.2 °F 18.9 °F 28.4 °F 93% 29.71 in 10.0 mi NNW 16.1 mph - N/A   Overcast
8:55 AM 30.2 °F 19.8 °F 28.4 °F 93% 29.72 in 10.0 mi NW 13.8 mph - N/A   Overcast
9:15 AM 30.2 °F 20.2 °F 28.4 °F 93% 29.72 in 10.0 mi NNW 12.7 mph - N/A   Overcast
9:55 AM 30.2 °F - 28.4 °F 93% 29.73 in 10.0 mi North - - N/A   Overcast
10:15 AM 32.0 °F 21.2 °F 28.4 °F 87% 29.74 in 10.0 mi NW 16.1 mph 21.9 mph N/A   Overcast
10:35 AM 32.0 °F 20.5 °F 28.4 °F 87% 29.75 in 10.0 mi NW 18.4 mph - N/A   Overcast
10:55 AM 32.0 °F 20.8 °F 28.4 °F 87% 29.76 in 10.0 mi NW 17.3 mph - N/A   Overcast
11:15 AM 32.0 °F 22.1 °F 28.4 °F 87% 29.76 in 10.0 mi NW 13.8 mph 24.2 mph N/A   Overcast
11:35 AM 32.0 °F 22.5 °F 28.4 °F 87% 29.77 in 10.0 mi NW 12.7 mph 20.7 mph N/A   Overcast
11:55 AM 32.0 °F 20.8 °F 28.4 °F 87% 29.78 in 10.0 mi WNW 17.3 mph 24.2 mph N/A   Overcast
12:15 PM 32.0 °F 20.8 °F 28.4 °F 87% 29.78 in 10.0 mi NW 17.3 mph 24.2 mph N/A   Overcast
12:35 PM 32.0 °F 19.5 °F 28.4 °F 87% 29.79 in 10.0 mi NW 21.9 mph - N/A   Overcast
12:55 PM 32.0 °F 20.1 °F 28.4 °F 87% 29.78 in 10.0 mi NW 19.6 mph - N/A   Overcast
1:15 PM 32.0 °F 20.8 °F 28.4 °F 87% 29.79 in 10.0 mi NW 17.3 mph 24.2 mph N/A   Overcast
1:35 PM 32.0 °F 20.8 °F 28.4 °F 87% 29.78 in 10.0 mi NW 17.3 mph 24.2 mph N/A   Overcast
1:55 PM 32.0 °F 21.2 °F 28.4 °F 87% 29.79 in 10.0 mi NW 16.1 mph 23.0 mph N/A   Overcast
2:15 PM 33.8 °F 22.8 °F 28.4 °F 81% 29.79 in 10.0 mi NW 18.4 mph - N/A   Overcast
2:35 PM 33.8 °F 22.8 °F 28.4 °F 81% 29.80 in 10.0 mi NW 18.4 mph - N/A   Overcast
2:55 PM 33.8 °F 23.9 °F 28.4 °F 81% 29.81 in 10.0 mi NW 15.0 mph - N/A   Overcast
3:15 PM 33.8 °F 23.9 °F 28.4 °F 81% 29.81 in 10.0 mi NW 15.0 mph 21.9 mph N/A   Overcast
3:35 PM 33.8 °F 24.3 °F 28.4 °F 81% 29.81 in 10.0 mi NW 13.8 mph 21.9 mph N/A   Overcast
3:55 PM 33.8 °F 22.8 °F 28.4 °F 81% 29.82 in 10.0 mi WNW 18.4 mph - N/A   Overcast
4:15 PM 33.8 °F 24.3 °F 28.4 °F 81% 29.81 in 10.0 mi NW 13.8 mph 21.9 mph N/A   Overcast
4:35 PM 33.8 °F 23.2 °F 28.4 °F 81% 29.81 in 10.0 mi NW 17.3 mph 23.0 mph N/A   Overcast
4:55 PM 33.8 °F 23.5 °F 28.4 °F 81% 29.82 in 10.0 mi NW 16.1 mph - N/A   Overcast
5:15 PM 33.8 °F 23.9 °F 28.4 °F 81% 29.83 in 10.0 mi WNW 15.0 mph 20.7 mph N/A Rain Light Rain
5:35 PM 33.8 °F 23.9 °F 28.4 °F 81% 29.84 in 10.0 mi WNW 15.0 mph 23.0 mph N/A   Overcast
5:55 PM 33.8 °F 23.5 °F 28.4 °F 81% 29.85 in 10.0 mi WNW 16.1 mph - N/A   Overcast
6:15 PM 33.8 °F 25.3 °F 28.4 °F 81% 29.85 in 10.0 mi WNW 11.5 mph 19.6 mph N/A   Overcast
6:35 PM 33.8 °F 24.3 °F 26.6 °F 75% 29.85 in 10.0 mi WNW 13.8 mph 19.6 mph N/A   Overcast
6:55 PM 33.8 °F 25.3 °F 28.4 °F 81% 29.85 in 10.0 mi WNW 11.5 mph 18.4 mph N/A   Overcast
7:15 PM 33.8 °F 24.3 °F 28.4 °F 81% 29.86 in 10.0 mi WNW 13.8 mph - N/A   Overcast
7:35 PM 33.8 °F 25.8 °F 28.4 °F 81% 29.85 in 10.0 mi WNW 10.4 mph 19.6 mph N/A   Overcast
7:55 PM 32.0 °F 21.6 °F 28.4 °F 87% 29.86 in 10.0 mi WNW 15.0 mph - N/A   Overcast
8:15 PM 32.0 °F 23.0 °F 28.4 °F 87% 29.86 in 10.0 mi WNW 11.5 mph 19.6 mph N/A   Overcast
8:35 PM 32.0 °F 23.0 °F 28.4 °F 87% 29.86 in 10.0 mi WNW 11.5 mph 23.0 mph N/A   Overcast
8:55 PM 32.0 °F 22.1 °F 28.4 °F 87% 29.87 in 10.0 mi WNW 13.8 mph 20.7 mph N/A   Overcast
9:15 PM 32.0 °F 22.1 °F 28.4 °F 87% 29.88 in 10.0 mi WNW 13.8 mph 20.7 mph N/A   Overcast
9:35 PM 32.0 °F 22.5 °F 28.4 °F 87% 29.88 in 10.0 mi WNW 12.7 mph 20.7 mph N/A   Overcast
9:55 PM 32.0 °F 24.2 °F 28.4 °F 87% 29.88 in 10.0 mi WNW 9.2 mph - N/A Rain Light Rain
10:15 PM 32.0 °F 22.5 °F 28.4 °F 87% 29.88 in 10.0 mi WNW 12.7 mph - N/A   Overcast
10:35 PM 32.0 °F 22.1 °F 28.4 °F 87% 29.88 in 10.0 mi WNW 13.8 mph - N/A Rain Light Rain
10:55 PM 32.0 °F 23.6 °F 28.4 °F 87% 29.88 in 10.0 mi WNW 10.4 mph - N/A   Overcast
11:15 PM 32.0 °F 23.6 °F 28.4 °F 87% 29.88 in 10.0 mi NW 10.4 mph 17.3 mph N/A   Overcast
11:35 PM 32.0 °F 23.0 °F 28.4 °F 87% 29.88 in 10.0 mi WNW 11.5 mph - N/A   Overcast
11:55 PM 32.0 °F 24.2 °F 28.4 °F 87% 29.89 in 10.0 mi WNW 9.2 mph - N/A   Overcast